Preview of NWS' New Version of Forecast
This preview is not operational and should not be used for support decisions.

Regional Weather Roundup (RWR)

Issued by National Weather Service (NWS)

                            
000
ASUS44 KMEG 201000
RWRTN 
TENNESSEE HOURLY STATE WEATHER ROUNDUP
NATIONAL WEATHER SERVICE MEMPHIS TN
400 AM CST WED FEB 20 2019

TNZ002-004-019-021-049-052-054-088>092-201100-
WEST TENNESSEE
  
CITY           SKY/WX    TMP DP  RH WIND       PRES   REMARKS
MEMPHIS INTL   LGT RAIN  41  41 100 VRB6      29.84F FOG              
JACKSON        CLOUDY    41  40  96 NE8       29.89F                  
DYERSBURG      LGT RAIN  40  39  97 NE13      29.89F WCI  32          
$$

TNZ008-025-027-028-033-062-065-066-201100-
NORTH MIDDLE TENNESSEE
  
CITY           SKY/WX    TMP DP  RH WIND       PRES   REMARKS
NASHVILLE      CLOUDY    49  45  86 S16       29.88F                  
CLARKSVILLE    HVY RAIN  40  38  93 N8        29.92F FOG     WCI  34  
SMYRNA         CLOUDY    49  46  90 S13G22    29.91F                  
CROSSVILLE     CLOUDY    41  40  96 S12G24    29.98F                  
$$

TNZ061-075-076-078-094-096-097-201100-
SOUTH MIDDLE TENNESSEE
  
CITY           SKY/WX    TMP DP  RH WIND       PRES   REMARKS
$$

TNZ017-018-042-046-047-201100-
NORTHEAST TENNESSEE
  
CITY           SKY/WX    TMP DP  RH WIND       PRES   REMARKS
TRI CITIES     MOCLDY    43  36  76 SE3       30.15F                  
$$

TNZ012-013-036-069-073-074-201100-
CENTRAL EAST TENNESSEE
  
CITY           SKY/WX    TMP DP  RH WIND       PRES   REMARKS
KNOXVILLE      MOCLDY    42  40  92 N5        30.04F                  
OAK RIDGE      CLOUDY    43  43 100 CALM      30.06F FOG              
$$

TNZ083-085-099-201100-
SOUTHEAST TENNESSEE
  
CITY           SKY/WX    TMP DP  RH WIND       PRES   REMARKS
CHATTANOOGA    CLOUDY    44  39  82 S16G26    30.09F                  
$$

SKY/WX REPORTED AS FAIR MEANS FEW OR NO CLOUDS BELOW
12 THOUSAND FEET.